Location: Arrodets-la-Barthe
(43.0306°N, 0.2829°E)
Time: 23:11:41
(UTC+00:00)

ESTCUBE 1 - Pass Details

Date: 04 April 2023
Orbit: 640 x 654 km, 97.9° (Epoch: 28 May)

Event Time Altitude Azimuth Distance (km) Brightness Sun altitude
Exits shadow 20:35:05 14° 45° (NE) 1,842 ? -22.4°
Drops below altitude 10° 20:36:24 10° 28° (NNE) 2,074 ? -22.6°
Sets 20:39:29 0° 6° (N) 2,989 ? -23.1°
